Minneapolis Flying Cloud, MN

1:55 AM CST on December 09, 2019 (GMT -0600)
Flying Cloud

Weather History for KFCM - October, 2019

Change the Weather History Date:

Tuesday, October 22, 2019

  Actual Average Record
Temperature  
Mean Temperature 43 °F -  
Max Temperature 45 °F 54 °F 70 °F (2003)
Min Temperature 39 °F 37 °F 25 °F (2006)
Degree Days  
Heating Degree Days 22    
Moisture  
Dew Point 36 °F    
Average Humidity 75    
Maximum Humidity 90    
Minimum Humidity 58    
Precipitation  
Precipitation 0.18 in - - ()
Sea Level Pressure  
Sea Level Pressure 29.47 in    
Wind  
Wind Speed 18 mph (WNW)    
Max Wind Speed 23 mph    
Max Gust Speed 40 mph    
Visibility 8 miles    
Events Rain    
Averages and records for this station are not official NWS values.
T = Trace of Precipitation, MM = Missing Value Source: NWS Daily Summary

Daily Weather History Graph

Daily Weather History Graph

Search for Another Location

Airport or City:

Astronomy

Oct. 22, 2019 Rise Set
Actual Time 7:38 AM CDT 6:17 PM CDT
Civil Twilight 7:08 AM CDT 6:47 PM CDT
Nautical Twilight 6:34 AM CDT 7:21 PM CDT
Astronomical Twilight 6:00 AM CDT 7:55 PM CDT
Moon 12:27 AM CDT (10/22) 3:47 PM CDT (10/22)
Length of Visible Light 11h 39m
Length of Day
10h 39m
Last Quarter, 37% of the Moon is Illuminated
Oct 22
Last Quarter
Oct 27
New
Nov 4
First Quarter
Nov 12
Full
Nov 19
Last Quarter

Hourly Weather History & Observations

Time (CDT) Temp. Windchill Dew Point Humidity Pressure Visibility Wind Dir Wind Speed Gust Speed Precip Events Conditions
12:21 AM 45.0 °F 38.5 °F 42.1 °F 90% 29.17 in 7.0 mi NNW 13.8 mph 26.5 mph 0.04 in Rain Light Rain
12:42 AM 44.1 °F 35.2 °F 41.0 °F 89% 29.18 in 5.0 mi NNW 23.0 mph 32.2 mph 0.04 in Rain Light Rain
12:53 AM 44.1 °F 36.5 °F 39.9 °F 85% 29.21 in 6.0 mi NW 17.3 mph 29.9 mph 0.04 in Rain Light Rain
1:53 AM 43.0 °F 33.8 °F 39.9 °F 89% 29.24 in 4.0 mi NW 23.0 mph 32.2 mph 0.00 in Rain Light Rain
2:53 AM 43.0 °F 34.8 °F 39.0 °F 86% 29.26 in 4.0 mi NW 18.4 mph 35.7 mph 0.02 in Rain Rain
3:09 AM 43.0 °F 34.2 °F 39.0 °F 86% 29.27 in 4.0 mi NW 20.7 mph 32.2 mph 0.02 in Rain Rain
3:53 AM 44.1 °F 36.8 °F 39.9 °F 85% 29.29 in 7.0 mi NW 16.1 mph 28.8 mph 0.04 in Rain Light Rain
4:53 AM 44.1 °F 35.2 °F 39.0 °F 82% 29.32 in 8.0 mi WNW 23.0 mph 32.2 mph 0.02 in Rain Light Rain
5:53 AM 43.0 °F 34.8 °F 39.0 °F 86% 29.36 in 7.0 mi WNW 18.4 mph 31.1 mph 0.04 in Rain Light Rain
6:53 AM 42.1 °F 33.3 °F 37.9 °F 85% 29.38 in 8.0 mi WNW 19.6 mph 35.7 mph 0.01 in Rain Light Rain
7:53 AM 41.0 °F 31.1 °F 36.0 °F 82% 29.41 in 10.0 mi WNW 23.0 mph 34.5 mph 0.00 in Rain Light Rain
8:53 AM 41.0 °F 32.5 °F 36.0 °F 82% 29.43 in 9.0 mi West 17.3 mph 36.8 mph 0.01 in Rain Light Rain
9:53 AM 41.0 °F 31.9 °F 37.0 °F 86% 29.47 in 9.0 mi WNW 19.6 mph 35.7 mph 0.00 in Rain Light Rain
10:53 AM 41.0 °F 31.4 °F 36.0 °F 82% 29.49 in 10.0 mi West 21.9 mph 40.3 mph 0.00 in   Overcast
11:53 AM 42.1 °F 32.8 °F 35.1 °F 76% 29.51 in 10.0 mi West 21.9 mph 36.8 mph 0.00 in Rain Light Rain
12:53 PM 42.1 °F 33.1 °F 35.1 °F 76% 29.52 in 10.0 mi WNW 20.7 mph 34.5 mph 0.00 in   Overcast
1:53 PM 44.1 °F 36.8 °F 35.1 °F 71% 29.54 in 10.0 mi WNW 16.1 mph 26.5 mph N/A   Overcast
2:53 PM 44.1 °F 35.9 °F 33.1 °F 65% 29.56 in 10.0 mi West 19.6 mph 36.8 mph N/A   Overcast
3:11 PM 45.0 °F 36.6 °F 33.1 °F 63% 29.55 in 10.0 mi West 21.9 mph 35.7 mph N/A   Overcast
3:53 PM 45.0 °F 37.6 °F 33.1 °F 63% 29.58 in 10.0 mi West 17.3 mph 34.5 mph N/A   Overcast
4:53 PM 45.0 °F 37.6 °F 33.1 °F 63% 29.61 in 10.0 mi WNW 17.3 mph 34.5 mph N/A   Overcast
5:53 PM 45.0 °F 37.1 °F 33.1 °F 63% 29.64 in 10.0 mi West 19.6 mph 31.1 mph N/A   Overcast
6:53 PM 45.0 °F 37.9 °F 32.0 °F 60% 29.66 in 10.0 mi WNW 16.1 mph 31.1 mph N/A   Overcast
7:53 PM 45.0 °F 38.2 °F 32.0 °F 60% 29.68 in 10.0 mi West 15.0 mph 32.2 mph N/A   Overcast
8:53 PM 45.0 °F 38.2 °F 30.9 °F 58% 29.69 in 10.0 mi West 15.0 mph 31.1 mph N/A   Overcast
9:53 PM 44.1 °F 36.5 °F 30.9 °F 60% 29.69 in 10.0 mi West 17.3 mph 33.4 mph N/A   Overcast
10:53 PM 44.1 °F 37.1 °F 30.9 °F 60% 29.71 in 10.0 mi West 15.0 mph 23.0 mph N/A   Overcast
11:53 PM 39.9 °F 33.9 °F 30.9 °F 70% 29.73 in 10.0 mi West 9.2 mph - N/A   Clear